Volver al catálogo

NTS 2 AKM

ActivoHEO
NORAD 26376·ROCKET BODY·🇺🇸 United States

Lanzado Jun 23, 1977 desde Vandenberg Space Force Base

Loading…

Próximos Pases (próximas 24 horas)

TLE

ActualizadoSource: Space-Track

Época: Sep 9, 2026, 09:03 UTC

1 26376U 77053C   26252.37742022  .00000034  00000-0  00000-0 0  9997
2 26376  62.7378 251.7730 0430569 218.2735 138.6083  2.04277166195873

Sigue NTS 2 AKM en tiempo real con AllMySat

Download on the App Store